Location: Marcé
(47.5801°N, 0.3280°W)
Time: 21:25:22
(UTC+01:00)

Altair - Pass Details

Date: 16 December 2021
Orbit: 1501 x 1683 km, 47.2° (Epoch: 20 January)

Event Time Altitude Azimuth Distance (km) Brightness Sun altitude
Rises 17:27:50 0° 282° (WNW) 4,788 10.9 -3.3°
Reaches altitude 10° 17:30:58 10° 281° (W) 3,778 10.4 -3.7°
Maximum altitude 17:40:29 78° 197° (SSW) 1,567 7.7 -5.1°
Drops below altitude 10° 17:49:41 10° 113° (ESE) 3,660 9.1 -6.5°
Sets 17:52:40 0° 113° (ESE) 4,632 9.6 -6.9°
